Location: Sungai Ketit
(2.6833°N, 113.2333°E)
Time: 19:27:44
(UTC+00:00)

Delta 202 - Pass Details

Date: 23 May 2024
Orbit: 781 x 2713 km, 18.5° (Epoch: 19 June)

Event Time Altitude Azimuth Distance (km) Brightness Sun altitude
Rises 11:01:30 0° 252° (WSW) 3,264 7.7 -7.8°
Reaches altitude 10° 11:03:46 10° 253° (WSW) 2,385 6.9 -8.3°
Maximum altitude 11:09:16 84° 340° (NNW) 939 4.0 -9.6°
Drops below altitude 10° 11:16:39 10° 69° (ENE) 3,156 6.2 -11.3°
Enters shadow 11:19:20 - 70° (ENE) 4,141 6.8 -12.0°
